DateTime,DeltaTime,Roll,TargetAngle,Position,Power
2022-05-23 14:57:31.839,0,0.12,0.43,0,1.16
2022-05-23 14:57:31.954,0.115006417036057,-0.14,-1.62,0,10.61
2022-05-23 14:57:32.069,0.230002775788307,-0.45,-2.91,-2,14.51
2022-05-23 14:57:32.183,0.344003364443779,-0.68,-3.42,-1,5.67
2022-05-23 14:57:32.297,0.458003953099251,-0.43,-0.39,0,-2.45
2022-05-23 14:57:32.408,0.56900717318058,0.28,4.04,0,-17
2022-05-23 14:57:32.523,0.684003531932831,1.2,8.27,0,-33.99
2022-05-23 14:57:32.638,0.798999890685081,1.4,5.72,3,-16.47
2022-05-23 14:57:32.753,0.914006307721138,0.82,0.35,3,21.52
2022-05-23 14:57:32.867,1.02800689637661,0.22,-1.82,3,21.66
2022-05-23 14:57:32.981,1.14200748503208,0.01,-0.87,2,14.51
2022-05-23 14:57:33.097,1.25800967216492,0.06,0.43,1,4.58
2022-05-23 14:57:33.211,1.37200020253658,0.26,1.74,1,-3.8
2022-05-23 14:57:33.325,1.48600079119205,0.76,4.84,2,-16.36
2022-05-23 14:57:33.441,1.60200297832489,1.3,6.94,2,-18.14
2022-05-23 14:57:33.555,1.71600356698036,1.35,4.9,3,-6.96
2022-05-23 14:57:33.670,1.83099992573261,1.01,2.1,3,9.12
2022-05-23 14:57:33.784,1.94500051438808,0.16,-3.17,3,30.59
2022-05-23 14:57:33.899,2.06000693142414,-0.6,-5.46,2,35.69
2022-05-23 14:57:34.014,2.17500329017639,-0.8,-3.68,-2,19.6
2022-05-23 14:57:34.129,2.29000970721245,-0.44,0.07,-3,-15.05
2022-05-23 14:57:34.243,2.40400023758411,-0.07,1.36,-2,-16.51
2022-05-23 14:57:34.358,2.51900665462017,0.08,0.94,0,-6.81
2022-05-23 14:57:34.473,2.63400301337242,0.21,1.29,0,-0.67
2022-05-23 14:57:34.587,2.74800360202789,-0.04,-1.19,0,9.45
2022-05-23 14:57:34.702,2.86299996078014,-0.73,-5.59,-3,28.29
2022-05-23 14:57:34.817,2.9780063778162,-1.77,-10.73,-3,33.76
2022-05-23 14:57:34.932,3.09300273656845,-2.1,-8.81,-5,22.05
2022-05-23 14:57:35.046,3.20700332522392,-1.63,-3.62,-7,-10.87
2022-05-23 14:57:35.161,3.32200974225998,-0.88,0.17,-8,-30.52
2022-05-23 14:57:35.276,3.43700610101223,-0.4,0.68,-5,-31.16
2022-05-23 14:57:35.390,3.5510066896677,-0.65,-3.33,-4,5.09
2022-05-23 14:57:35.505,3.66600304841995,-1.03,-5.29,-2,10.56
2022-05-23 14:57:35.620,3.78100946545601,-1.94,-10.76,-3,44.17
2022-05-23 14:57:35.734,3.89499999582767,-2.23,-9.05,-5,21.6
2022-05-23 14:57:35.849,4.01000641286373,-2.32,-8.56,-7,13.28
2022-05-23 14:57:35.959,4.12000380456448,-1.9,-4.77,-8,-12.1
2022-05-23 14:57:36.074,4.23500016331673,-1.15,-0.74,-8,-29.88
2022-05-23 14:57:36.189,4.35000658035278,-0.66,-0.21,-6,-26.62
2022-05-23 14:57:36.305,4.46600876748562,-0.47,-0.78,-4,-13.78
2022-05-23 14:57:36.418,4.57900352776051,-0.46,-1.6,-3,-3.53
2022-05-23 14:57:36.534,4.69500571489334,-1.08,-6.51,-3,22.16
2022-05-23 14:57:36.647,4.80800047516823,-2.04,-11.33,-4,38.8
2022-05-23 14:57:36.762,4.92300689220428,-2.6,-11.51,-7,29.2
2022-05-23 14:57:36.877,5.03800325095654,-1.86,-3.32,-9,-25.03
2022-05-23 14:57:36.991,5.15200383961201,-1,0.26,-7,-38.62
2022-05-23 14:57:37.105,5.26600442826748,-0.28,2.13,-5,-31.53
2022-05-23 14:57:37.220,5.38100078701973,-0.01,1.15,-1,-17.63
2022-05-23 14:57:37.335,5.49600720405579,0.05,0.41,1,1.61
2022-05-23 14:57:37.449,5.61000779271126,-0.11,-1.09,1,12.83
2022-05-23 14:57:37.565,5.72599992156029,-0.99,-7.25,0,39.22
2022-05-23 14:57:37.680,5.84100633859634,-1.66,-8.75,-2,34.41
2022-05-23 14:57:37.795,5.95600269734859,-0.84,0.62,-5,-22.3
2022-05-23 14:57:37.909,6.07000328600407,0.22,5.44,-4,-46.77
2022-05-23 14:57:38.023,6.18400387465954,0.52,3.09,0,-21.78
2022-05-23 14:57:38.138,6.29900023341179,0.51,1.74,4,-0.05
2022-05-23 14:57:38.253,6.41400665044785,1.03,5.9,3,-8.04
2022-05-23 14:57:38.367,6.52800723910332,1.51,7.39,4,-20.45
2022-05-23 14:57:38.482,6.64300359785557,0.78,-0.44,4,26.56
2022-05-23 14:57:38.597,6.75799995660782,-0.29,-5.73,3,41.88
2022-05-23 14:57:38.711,6.87200054526329,-0.22,-0.47,0,4.5
2022-05-23 14:57:38.827,6.98800273239613,0.28,3.19,-3,-20.27
2022-05-23 14:57:38.941,7.1020033210516,1,6.65,0,-44.17
2022-05-23 14:57:39.055,7.21600390970707,0.58,0.19,3,10.73
2022-05-23 14:57:39.170,7.33100026845932,1.14,6.46,3,-18.03
2022-05-23 14:57:39.284,7.44500085711479,1.54,7.13,4,-17.42
2022-05-23 14:57:39.400,7.56100304424763,0.91,0.41,5,21.71
2022-05-23 14:57:39.515,7.67600946128368,0,-3.96,5,38.76
2022-05-23 14:57:39.630,7.79100582003593,0.33,2.58,1,-0.13
2022-05-23 14:57:39.743,7.90400058031082,0.45,2.09,0,-8.91
2022-05-23 14:57:39.855,8.01600962877274,1,5.9,0,-28.46
2022-05-23 14:57:39.969,8.1300001591444,1.64,8.54,5,-35.93
2022-05-23 14:57:40.084,8.24500657618046,1.74,6.54,6,1.76
2022-05-23 14:57:40.198,8.35900716483593,2.1,8.95,6,-14.59
2022-05-23 14:57:40.313,8.47400352358818,2.06,7,6,-3.24
2022-05-23 14:57:40.428,8.58899988234043,1.28,1.05,6,23.86
2022-05-23 14:57:40.542,8.7030004709959,0.33,-2.98,4,36.66
2022-05-23 14:57:40.657,8.81800688803196,0.06,-0.97,1,12.15
2022-05-23 14:57:40.772,8.93300324678421,0.72,5.38,1,-28.89
2022-05-23 14:57:40.886,9.04700383543968,1.38,7.71,3,-28.7
2022-05-23 14:57:41.001,9.16200019419193,1.64,6.89,5,-12.16
2022-05-23 14:57:41.115,9.2760007828474,1.73,6.46,7,-4.05
2022-05-23 14:57:41.231,9.39200296998024,1.72,5.98,7,5.04
2022-05-23 14:57:41.345,9.50600355863571,1.12,1.27,6,25.44
2022-05-23 14:57:41.460,9.62099991738796,0.03,-4.61,5,44.21
2022-05-23 14:57:41.575,9.73600633442402,-0.51,-4.19,3,31.66
2022-05-23 14:57:41.690,9.85100269317627,0.53,6.37,0,-28.46
2022-05-23 14:57:41.804,9.96500328183174,1.39,8.62,2,-38.58
2022-05-23 14:57:41.919,10.0800096988678,1.31,4.24,4,-0.58
2022-05-23 14:57:42.033,10.1940002292395,1.18,3.57,5,4.23
2022-05-23 14:57:42.148,10.3090066462755,1.14,3.8,6,4.62
2022-05-23 14:57:42.263,10.4240030050278,0.61,-0.15,5,28.48
2022-05-23 14:57:42.377,10.5380035936832,-0.37,-5.55,4,44.57
2022-05-23 14:57:42.492,10.6529999524355,-0.99,-6.19,0,37.96
2022-05-23 14:57:42.607,10.7680063694715,-0.07,3.75,-4,-30.35
2022-05-23 14:57:42.721,10.882006958127,0.47,4.03,-3,-33.85
2022-05-23 14:57:42.836,10.9970033168793,0.27,0.03,0,-3.94
2022-05-23 14:57:42.951,11.1120097339153,0.1,-0.33,1,6.03
2022-05-23 14:57:43.065,11.226000264287,0.2,1.1,2,-0.51
2022-05-23 14:57:43.176,11.3370034843683,-0.12,-1.77,2,19.41
2022-05-23 14:57:43.291,11.4519998431206,-0.98,-7.18,1,41.72
2022-05-23 14:57:43.404,11.5650046616793,-1.72,-9.27,-3,40.94
2022-05-23 14:57:43.519,11.6800010204315,-1.3,-2.71,-7,-12.37
2022-05-23 14:57:43.635,11.7960032075644,-0.92,-1.59,-6,-24.14
2022-05-23 14:57:43.752,11.913001164794,-0.7,-1.46,-5,-13.59
2022-05-23 14:57:43.864,12.0250001549721,-0.5,-0.87,-3,-13.08
2022-05-23 14:57:43.979,12.1400065720081,-0.41,-1.05,-3,-3.12
2022-05-23 14:57:44.094,12.2550029307604,-0.61,-3.04,-3,3.79
2022-05-23 14:57:44.208,12.3690035194159,-1.54,-9.43,-3,33.16
2022-05-23 14:57:44.323,12.4839998781681,-2.42,-12.32,-5,39.85
2022-05-23 14:57:44.436,12.5970046967268,-2.46,-8.75,-9,9.05
2022-05-23 14:57:44.552,12.7130068838596,-2.15,-6.23,-9,-15.95
2022-05-23 14:57:44.667,12.8280032426119,-1.69,-3.92,-9,-19.19
2022-05-23 14:57:44.781,12.9420038312674,-1.26,-2.54,-7,-23.54
2022-05-23 14:57:44.896,13.0570001900196,-1.06,-2.84,-5,-10.82
2022-05-23 14:57:45.010,13.1710007786751,-1.13,-4.28,-5,3
2022-05-23 14:57:45.126,13.2870029658079,-1.84,-9.56,-5,24.82
2022-05-23 14:57:45.240,13.4010035544634,-2.88,-14.6,-7,43.52
2022-05-23 14:57:45.355,13.5159999132156,-2.94,-10.52,-9,7.42
2022-05-23 14:57:45.470,13.6310063302517,-2.93,-10.26,-10,4.39
2022-05-23 14:57:45.585,13.7460026890039,-2.64,-7.99,-10,-8.9
2022-05-23 14:57:45.699,13.8600032776594,-1.84,-2.91,-9,-30.21
2022-05-23 14:57:45.814,13.9750096946955,-1.26,-1.88,-9,-24.32
2022-05-23 14:57:45.928,14.0890002250671,-1.27,-4.5,-7,-11.84
2022-05-23 14:57:46.043,14.2040066421032,-1.9,-9.43,-6,18.98
2022-05-23 14:57:46.158,14.3190030008554,-3,-15.25,-6,44.23
2022-05-23 14:57:46.272,14.4330035895109,-2.99,-10.41,-9,11.93
2022-05-23 14:57:46.387,14.5479999482632,-3.39,-13.62,-11,19.71
2022-05-23 14:57:46.501,14.6620005369186,-3.17,-10.14,-11,-7.52
2022-05-23 14:57:46.617,14.7780027240515,-2.66,-7.07,-11,-15.79
2022-05-23 14:57:46.731,14.8920033127069,-1.63,-1.24,-11,-41.27
2022-05-23 14:57:46.845,15.0060039013624,-1.68,-6.06,-7,-10.48
2022-05-23 14:57:46.960,15.1210002601147,-2.14,-9.5,-8,19.99
2022-05-23 14:57:47.075,15.2360066771507,-2.61,-11.17,-8,13.82
2022-05-23 14:57:47.190,15.351003035903,-3.5,-16.15,-9,38.15
2022-05-23 14:57:47.305,15.466009452939,-3.51,-12.3,-11,8.12
2022-05-23 14:57:47.419,15.5799999833107,-3.61,-13.05,-13,8.55
2022-05-23 14:57:47.533,15.6940005719662,-3.17,-9.22,-12,-18.81
2022-05-23 14:57:47.649,15.810002759099,-2.51,-5.87,-12,-23.28
2022-05-23 14:57:47.763,15.9240033477545,-1.93,-4.27,-11,-28.74
2022-05-23 14:57:47.878,16.0390097647905,-1.8,-5.72,-9,-15.11
2022-05-23 14:57:47.993,16.1540061235428,-2.19,-9.34,-8,9.28
2022-05-23 14:57:48.107,16.2680067121983,-3.02,-14.23,-8,31.42
2022-05-23 14:57:48.222,16.3830030709505,-3.09,-11.14,-9,8.85
2022-05-23 14:57:48.337,16.4980094879866,-3.36,-12.88,-10,16.88
2022-05-23 14:57:48.451,16.6120000183582,-3.2,-10.51,-11,-0.6
2022-05-23 14:57:48.566,16.7270064353943,-2.36,-4.63,-11,-30.55
2022-05-23 14:57:48.680,16.8410070240498,-1.74,-3.33,-9,-28.61
2022-05-23 14:57:48.795,16.956003382802,-1.6,-5.04,-6,-9.08
2022-05-23 14:57:48.905,17.0660007745028,-1.73,-6.61,-5,8.58
2022-05-23 14:57:49.021,17.1820029616356,-1.96,-7.9,-6,14.09
2022-05-23 14:57:49.135,17.2960035502911,-2.68,-12.51,-6,29.41
2022-05-23 14:57:49.249,17.4100041389465,-2.85,-10.7,-7,16.25
2022-05-23 14:57:49.365,17.5260063260794,-2.9,-10.39,-8,12.49
2022-05-23 14:57:49.478,17.6390010863543,-2.53,-7.2,-9,-6.44
2022-05-23 14:57:49.594,17.7550032734871,-1.61,-1.61,-8,-34.02
2022-05-23 14:57:49.709,17.8700096905231,-1.48,-4.64,-7,-5.87
2022-05-23 14:57:49.823,17.9840002208948,-1.18,-2.8,-6,-15.67
2022-05-23 14:57:49.938,18.0990066379309,-1.33,-5.33,-5,2.69
2022-05-23 14:57:50.053,18.2140029966831,-2.01,-10.03,-5,26.52
2022-05-23 14:57:50.167,18.3280035853386,-2.58,-11.51,-7,26.94
2022-05-23 14:57:50.282,18.4429999440908,-2.56,-8.84,-9,2.22
2022-05-23 14:57:50.397,18.5580063611269,-2.54,-8.78,-10,-1.82
2022-05-23 14:57:50.512,18.6730027198792,-2.31,-7.08,-10,-12.64
2022-05-23 14:57:50.626,18.7870033085346,-1.71,-3.35,-9,-28.01
2022-05-23 14:57:50.740,18.9010038971901,-1.56,-4.81,-7,-11.44
2022-05-23 14:57:50.855,19.0160002559423,-1.67,-6.31,-6,2.49
2022-05-23 14:57:50.970,19.1310066729784,-1.91,-7.77,-6,10.09
2022-05-23 14:57:51.085,19.2460030317307,-2.57,-11.88,-7,27.6
2022-05-23 14:57:51.200,19.3610094487667,-3.05,-12.77,-7,22.22
2022-05-23 14:57:51.315,19.476005807519,-3.05,-10.69,-8,12.5
2022-05-23 14:57:51.428,19.5890005677938,-2.34,-5.08,-9,-17.48
2022-05-23 14:57:51.544,19.7050027549267,-1.9,-4.74,-9,-15.84
2022-05-23 14:57:51.659,19.8200091719627,-1.58,-4.15,-8,-17.38
2022-05-23 14:57:51.773,19.9340097606182,-1.41,-4.15,-7,-12.08
2022-05-23 14:57:51.887,20.0480002909899,-1.42,-5.05,-6,-4.22
2022-05-23 14:57:52.002,20.1630067080259,-1.82,-8.11,-7,13.41
2022-05-23 14:57:52.117,20.2780030667782,-2.46,-11.41,-7,19.8
2022-05-23 14:57:52.233,20.394005253911,-2.95,-12.42,-7,22.21
2022-05-23 14:57:52.346,20.5070000141859,-2.69,-8.29,-7,0.74
2022-05-23 14:57:52.460,20.6210006028414,-1.8,-2.45,-7,-22.96
2022-05-23 14:57:52.575,20.7360070198774,-0.97,0.25,-7,-29.2
2022-05-23 14:57:52.690,20.8510033786297,-0.42,0.91,-4,-29.65
2022-05-23 14:57:52.805,20.9660097956657,-0.74,-3.98,-3,9.95
2022-05-23 14:57:52.919,21.0800003260374,-1,-4.6,-4,7.73
2022-05-23 14:57:53.035,21.1960025131702,-1.25,-5.52,-3,5.38
2022-05-23 14:57:53.148,21.3090073317289,-1.46,-5.98,-3,12.91
2022-05-23 14:57:53.264,21.4250095188618,-1.46,-5.16,-3,7.17
2022-05-23 14:57:53.378,21.5390000492334,-1.1,-2.28,-3,-5.95
2022-05-23 14:57:53.493,21.6540064662695,-0.55,0.53,-3,-16.31
2022-05-23 14:57:53.608,21.7690028250217,0.21,4.05,-2,-30.55
2022-05-23 14:57:53.718,21.8790002167225,0.26,1.13,3,-7.01
2022-05-23 14:57:53.833,21.9940066337585,-0.14,-2.25,2,29.49
2022-05-23 14:57:53.947,22.108007222414,-0.2,-0.97,0,7.58
2022-05-23 14:57:54.063,22.2240094095469,-0.15,-0.29,0,-2.55
2022-05-23 14:57:54.177,22.3379999399185,-0.28,-1.55,0,7.27
2022-05-23 14:57:54.292,22.4530063569546,-0.39,-1.84,0,7.24
2022-05-23 14:57:54.406,22.56700694561,-0.22,-0.07,0,-1.86
2022-05-23 14:57:54.520,22.6810075342655,0.26,3.01,0,-14.9
2022-05-23 14:57:54.635,22.7960038930178,0.9,5.92,1,-25.71
2022-05-23 14:57:54.750,22.91100025177,1.06,4.42,1,-9.92
2022-05-23 14:57:54.865,23.0260066688061,0.77,1.4,3,1.56
2022-05-23 14:57:54.979,23.1400072574615,0.4,-0.16,3,15.42
2022-05-23 14:57:55.094,23.2550036162138,0.11,-0.86,2,14.53
2022-05-23 14:57:55.209,23.369999974966,0.04,-0.22,2,5.76
2022-05-23 14:57:55.323,23.4840005636215,0.3,2.21,2,-4.07
2022-05-23 14:57:55.438,23.5990069806576,0.69,4.15,3,-10.57
2022-05-23 14:57:55.553,23.7140033394098,1.38,7.82,3,-21.58
2022-05-23 14:57:55.668,23.8290097564459,1.65,6.98,3,-14.36
2022-05-23 14:57:55.783,23.9440061151981,1.3,3.04,5,3.93
2022-05-23 14:57:55.897,24.0580067038536,0.76,0.25,4,22.7
2022-05-23 14:57:56.012,24.1730030626059,0.43,0.12,3,12.48
2022-05-23 14:57:56.127,24.2880094796419,0.25,0.04,2,9.38
2022-05-23 14:57:56.241,24.4020000100136,0.18,0.31,3,4.54
2022-05-23 14:57:56.355,24.5160005986691,0.15,0.4,3,10.89
2022-05-23 14:57:56.470,24.6310070157051,0.26,1.36,2,5.14
2022-05-23 14:57:56.585,24.7460033744574,0.33,1.47,3,0.99
2022-05-23 14:57:56.695,24.8560007661581,0.25,0.55,3,12.12
2022-05-23 14:57:56.810,24.9710071831942,-0.19,-2.59,2,25.52
2022-05-23 14:57:56.925,25.0860035419464,-0.54,-3.45,2,21.21
2022-05-23 14:57:57.040,25.2009999006987,-0.56,-2.06,0,14.93
2022-05-23 14:57:57.154,25.3150004893541,-0.65,-2.69,0,10.29
2022-05-23 14:57:57.270,25.431002676487,-0.88,-4.07,0,19.21
2022-05-23 14:57:57.384,25.5450032651424,-1.13,-5.06,0,22.76
2022-05-23 14:57:57.499,25.6600096821785,-1.18,-4.31,-2,18.18
2022-05-23 14:57:57.613,25.7740002125502,-0.98,-2.61,-2,1.02
2022-05-23 14:57:57.728,25.8890066295862,-1.08,-4.17,-4,13.75
2022-05-23 14:57:57.843,26.0040029883385,-1.45,-6.68,-3,14.44
2022-05-23 14:57:57.957,26.1180035769939,-1.86,-8.3,-3,27.11
2022-05-23 14:57:58.072,26.2329999357462,-1.99,-7.52,-3,20.26
2022-05-23 14:57:58.186,26.3470005244017,-1.46,-2.8,-5,-1.91
2022-05-23 14:57:58.301,26.4620069414377,-0.99,-1.42,-3,-12.66
2022-05-23 14:57:58.416,26.57700330019,-0.86,-2.44,-4,6.57
2022-05-23 14:57:58.530,26.6910038888454,-1.01,-4.22,-4,6.47
2022-05-23 14:57:58.644,26.8050044775009,-1.35,-6.18,-6,15.25
2022-05-23 14:57:58.759,26.9200008362532,-1.8,-8.26,-5,13.29
2022-05-23 14:57:58.874,27.0350072532892,-2.22,-9.64,-5,25.28
2022-05-23 14:57:58.989,27.1500036120415,-2.33,-8.65,-6,17.68
2022-05-23 14:57:59.104,27.2649999707937,-1.72,-3.35,-5,-12.22
2022-05-23 14:57:59.218,27.3790005594492,-1.21,-1.97,-6,-6.11
2022-05-23 14:57:59.333,27.4940069764853,-0.93,-2.05,-5,-10.51
2022-05-23 14:57:59.448,27.6090033352375,-0.91,-3.13,-5,0.74
2022-05-23 14:57:59.562,27.723003923893,-1.19,-5.37,-6,9.05
2022-05-23 14:57:59.677,27.8380002826452,-1.5,-6.62,-7,7.42
2022-05-23 14:57:59.791,27.9520008713007,-1.96,-8.83,-6,13.19
2022-05-23 14:57:59.906,28.0670072883368,-2.27,-9.33,-6,19.29
2022-05-23 14:58:00.021,28.182003647089,-2.36,-8.67,-6,14.3
2022-05-23 14:58:00.136,28.2970000058413,-2.27,-7.51,-6,9.64
2022-05-23 14:58:00.251,28.4120064228773,-1.99,-5.79,-6,2.66
2022-05-23 14:58:00.365,28.5260070115328,-1.74,-4.96,-6,0.74
2022-05-23 14:58:00.480,28.641003370285,-1.74,-6.14,-6,7.64
2022-05-23 14:58:00.594,28.7550039589405,-2.02,-8.3,-6,16.94
2022-05-23 14:58:00.705,28.8660071790218,-2.32,-9.4,-6,19.79
2022-05-23 14:58:00.820,28.9810035377741,-2.68,-10.92,-6,26.3
2022-05-23 14:58:00.935,29.0959998965263,-2.74,-9.85,-8,19.4
2022-05-23 14:58:01.049,29.2100004851818,-2.28,-5.99,-3,-8.18
2022-05-23 14:58:01.164,29.3250069022179,-2.01,-5.84,-8,23.57
2022-05-23 14:58:01.278,29.4390074908733,-1.96,-6.69,-8,-3.27
2022-05-23 14:58:01.394,29.5550096780062,-2.3,-9.55,-8,16.35
2022-05-23 14:58:01.509,29.6700060367584,-2.73,-11.42,-8,22.12
2022-05-23 14:58:01.623,29.7840066254139,-3.07,-12.21,-8,23.89
2022-05-23 14:58:01.738,29.8990029841661,-2.83,-8.88,-10,6.64
2022-05-23 14:58:01.852,30.0130035728216,-2.5,-7.28,-10,-6.94
2022-05-23 14:58:01.967,30.1279999315739,-2.25,-6.77,-10,-5.03
2022-05-23 14:58:02.082,30.2430063486099,-2.26,-7.96,-10,1.28
2022-05-23 14:58:02.196,30.3570069372654,-2.54,-10.13,-10,10.41
2022-05-23 14:58:02.311,30.4720032960176,-2.89,-11.62,-9,15
